• In Belarus
  • List of Countries
  • For 7 days
  • Water Temperature
  • Satellite Maps
  • Weather Map
  • Weather Widgets
  • user-avatar
    Login

    Hourly Weather Korçe

    Today, 27 June, Thursday

    Time Temperature Precipitation Wind Pressure Humidity
    00:00 +16°C° 0 mm 2 mps 670 mmHg 81%
    01:00 +16°C° 0 mm 2 mps 670 mmHg 82%
    02:00 +16°C° 0 mm 2 mps 669 mmHg 82%
    03:00 +16°C° 0 mm 2 mps 669 mmHg 83%
    04:00 +15°C° 0 mm 2 mps 669 mmHg 84%
    05:00 +17°C° 0 mm 2 mps 669 mmHg 78%
    06:00 +19°C° 0 mm 2 mps 670 mmHg 73%
    07:00 +21°C° 0 mm 2 mps 670 mmHg 67%
    08:00 +23°C° 0 mm 2 mps 671 mmHg 60%
    09:00 +25°C° 0 mm 2 mps 671 mmHg 53%
    10:00 +26°C° 0 mm 3 mps 671 mmHg 46%
    11:00 +27°C° 0 mm 3 mps 671 mmHg 45%
    12:00 +27°C° 0 mm 2 mps 671 mmHg 43%
    13:00 +28°C° 0 mm 2 mps 671 mmHg 41%
    14:00 +28°C° 0 mm 2 mps 670 mmHg 43%
    15:00 +28°C° 0 mm 2 mps 670 mmHg 45%
    16:00 +27°C° 0 mm 3 mps 669 mmHg 46%
    17:00 +25°C° 0 mm 2 mps 669 mmHg 55%
    18:00 +23°C° 0 mm 2 mps 668 mmHg 63%
    19:00 +21°C° 0 mm 1 mps 667 mmHg 71%
    20:00 +20°C° 0 mm 1 mps 667 mmHg 73%
    21:00 +20°C° 0 mm 1 mps 667 mmHg 74%
    22:00 +19°C° 0 mm 1 mps 667 mmHg 76%
    23:00 +18°C° 0 mm 1 mps 667 mmHg 76%

    Tomorrow, 28 June, Friday

    Time Temperature Precipitation Wind Pressure Humidity
    00:00 +18°C° 0 mm 1 mps 666 mmHg 77%
    01:00 +18°C° 0 mm 1 mps 666 mmHg 77%
    02:00 +16°C° 0 mm 1 mps 666 mmHg 76%
    03:00 +16°C° 0 mm 1 mps 666 mmHg 76%
    04:00 +16°C° 0 mm 1 mps 665 mmHg 76%
    05:00 +19°C° 0 mm 1 mps 666 mmHg 69%
    06:00 +21°C° 0 mm 1 mps 666 mmHg 63%
    07:00 +23°C° 0 mm 1 mps 667 mmHg 56%
    08:00 +25°C° 0 mm 1 mps 667 mmHg 52%
    09:00 +26°C° 0 mm 2 mps 667 mmHg 48%
    10:00 +28°C° 0 mm 2 mps 668 mmHg 44%
    11:00 +28°C° 0 mm 2 mps 668 mmHg 43%
    12:00 +29°C° 0 mm 2 mps 668 mmHg 41%
    13:00 +30°C° 0 mm 2 mps 668 mmHg 40%
    14:00 +29°C° 0.2 mm 2 mps 667 mmHg 45%
    15:00 +28°C° 0.2 mm 3 mps 667 mmHg 49%
    16:00 +27°C° 0.2 mm 3 mps 666 mmHg 54%
    17:00 +25°C° 0.5 mm 2 mps 666 mmHg 62%
    18:00 +23°C° 0.5 mm 2 mps 666 mmHg 70%
    19:00 +21°C° 0.5 mm 1 mps 665 mmHg 79%
    20:00 +20°C° 0 mm 1 mps 665 mmHg 81%
    21:00 +18°C° 0 mm 2 mps 665 mmHg 82%
    22:00 +17°C° 0 mm 2 mps 665 mmHg 84%
    23:00 +17°C° 0 mm 2 mps 665 mmHg 84%

    Day after tomorrow, 29 June, Saturday

    Time Temperature Precipitation Wind Pressure Humidity
    00:00 +16°C° 0 mm 2 mps 665 mmHg 84%
    01:00 +15°C° 0 mm 2 mps 665 mmHg 84%
    02:00 +13°C° 0 mm 3 mps 665 mmHg 84%
    03:00 +13°C° 0 mm 3 mps 665 mmHg 84%
    04:00 +12°C° 0 mm 3 mps 664 mmHg 84%
    05:00 +13°C° 0 mm 3 mps 665 mmHg 76%
    06:00 +16°C° 0 mm 3 mps 666 mmHg 68%
    07:00 +17°C° 0 mm 3 mps 666 mmHg 60%
    08:00 +19°C° 0 mm 3 mps 667 mmHg 54%
    09:00 +21°C° 0 mm 2 mps 668 mmHg 47%
    10:00 +24°C° 0 mm 2 mps 668 mmHg 41%
    11:00 +24°C° 0 mm 2 mps 668 mmHg 40%
    12:00 +25°C° 0 mm 2 mps 669 mmHg 40%
    13:00 +26°C° 0 mm 2 mps 669 mmHg 40%
    14:00 +26°C° 0 mm 2 mps 669 mmHg 42%
    15:00 +25°C° 0 mm 2 mps 669 mmHg 44%
    16:00 +25°C° 0 mm 2 mps 668 mmHg 46%
    17:00 +23°C° 0 mm 2 mps 668 mmHg 52%
    18:00 +20°C° 0 mm 2 mps 668 mmHg 57%
    19:00 +18°C° 0 mm 2 mps 667 mmHg 63%
    20:00 +17°C° 0 mm 2 mps 667 mmHg 64%
    21:00 +16°C° 0 mm 2 mps 667 mmHg 65%
    22:00 +15°C° 0 mm 2 mps 667 mmHg 65%
    23:00 +15°C° 0 mm 2 mps 667 mmHg 66%

    30 June, Sunday

    Time Temperature Precipitation Wind Pressure Humidity
    00:00 +14°C° 0 mm 2 mps 667 mmHg 67%
    01:00 +14°C° 0 mm 2 mps 667 mmHg 67%
    02:00 +13°C° 0 mm 2 mps 667 mmHg 69%
    03:00 +13°C° 0 mm 2 mps 667 mmHg 71%
    04:00 +13°C° 0 mm 2 mps 667 mmHg 72%
    05:00 +15°C° 0 mm 2 mps 668 mmHg 67%
    06:00 +17°C° 0 mm 2 mps 668 mmHg 62%
    07:00 +19°C° 0 mm 2 mps 669 mmHg 56%
    08:00 +20°C° 0 mm 2 mps 670 mmHg 49%
    09:00 +23°C° 0 mm 2 mps 671 mmHg 43%
    10:00 +25°C° 0 mm 1 mps 671 mmHg 36%
    11:00 +25°C° 0 mm 2 mps 671 mmHg 34%
    12:00 +26°C° 0 mm 2 mps 671 mmHg 33%
    13:00 +27°C° 0 mm 2 mps 671 mmHg 32%
    14:00 +26°C° 0 mm 2 mps 671 mmHg 34%
    15:00 +26°C° 0 mm 2 mps 671 mmHg 36%
    16:00 +26°C° 0 mm 2 mps 671 mmHg 38%
    17:00 +24°C° 0 mm 2 mps 670 mmHg 47%
    18:00 +20°C° 0 mm 2 mps 670 mmHg 55%
    19:00 +19°C° 0 mm 1 mps 669 mmHg 64%
    20:00 +18°C° 0 mm 1 mps 669 mmHg 65%
    21:00 +16°C° 0 mm 2 mps 669 mmHg 66%
    22:00 +15°C° 0 mm 2 mps 669 mmHg 67%
    23:00 +15°C° 0 mm 2 mps 669 mmHg 68%

    1 July, Monday

    Time Temperature Precipitation Wind Pressure Humidity
    00:00 +15°C° 0 mm 2 mps 669 mmHg 69%
    01:00 +14°C° 0 mm 2 mps 669 mmHg 70%
    02:00 +14°C° 0 mm 2 mps 669 mmHg 72%
    03:00 +14°C° 0 mm 2 mps 669 mmHg 73%
    04:00 +14°C° 0 mm 2 mps 669 mmHg 75%
    05:00 +16°C° 0 mm 2 mps 670 mmHg 70%
    06:00 +18°C° 0 mm 2 mps 670 mmHg 65%
    07:00 +21°C° 0 mm 1 mps 671 mmHg 60%
    08:00 +23°C° 0 mm 1 mps 672 mmHg 54%
    09:00 +25°C° 0 mm 1 mps 672 mmHg 49%
    10:00 +26°C° 0 mm 1 mps 673 mmHg 43%
    11:00 +27°C° 0 mm 1 mps 673 mmHg 41%
    12:00 +28°C° 0 mm 2 mps 673 mmHg 39%
    13:00 +28°C° 0 mm 2 mps 673 mmHg 37%
    14:00 +28°C° 0 mm 2 mps 672 mmHg 39%
    15:00 +28°C° 0 mm 2 mps 672 mmHg 41%
    16:00 +27°C° 0 mm 2 mps 672 mmHg 42%
    17:00 +25°C° 0 mm 2 mps 671 mmHg 52%
    18:00 +23°C° 0 mm 2 mps 670 mmHg 61%
    19:00 +21°C° 0 mm 1 mps 670 mmHg 70%
    20:00 +20°C° 0 mm 1 mps 670 mmHg 72%
    21:00 +19°C° 0 mm 1 mps 670 mmHg 73%
    22:00 +18°C° 0 mm 1 mps 669 mmHg 75%
    23:00 +18°C° 0 mm 1 mps 669 mmHg 75%

    2 July, Tuesday

    Time Temperature Precipitation Wind Pressure Humidity
    00:00 +16°C° 0 mm 1 mps 669 mmHg 75%
    01:00 +16°C° 0 mm 1 mps 669 mmHg 75%
    02:00 +16°C° 0 mm 1 mps 668 mmHg 73%
    03:00 +16°C° 0 mm 1 mps 668 mmHg 72%
    04:00 +16°C° 0 mm 1 mps 668 mmHg 71%
    05:00 +19°C° 0 mm 1 mps 668 mmHg 65%
    06:00 +21°C° 0 mm 1 mps 669 mmHg 59%
    07:00 +23°C° 0 mm 1 mps 670 mmHg 53%
    08:00 +25°C° 0 mm 1 mps 670 mmHg 47%
    09:00 +27°C° 0 mm 1 mps 670 mmHg 40%
    10:00 +29°C° 0 mm 1 mps 671 mmHg 34%
    11:00 +30°C° 0 mm 2 mps 671 mmHg 31%
    12:00 +31°C° 0 mm 2 mps 671 mmHg 29%
    13:00 +31°C° 0 mm 3 mps 670 mmHg 26%
    14:00 +31°C° 0 mm 3 mps 670 mmHg 28%
    15:00 +30°C° 0 mm 3 mps 670 mmHg 30%
    16:00 +30°C° 0 mm 3 mps 669 mmHg 32%
    17:00 +27°C° 0 mm 2 mps 669 mmHg 42%
    18:00 +25°C° 0 mm 2 mps 668 mmHg 51%
    19:00 +22°C° 0 mm 1 mps 668 mmHg 60%
    20:00 +21°C° 0 mm 1 mps 668 mmHg 58%
    21:00 +21°C° 0 mm 1 mps 667 mmHg 57%
    22:00 +20°C° 0 mm 1 mps 667 mmHg 55%
    23:00 +20°C° 0 mm 1 mps 667 mmHg 52%
    Show more